Location: Kunchanapalle
(16.4623°N, 80.6176°E)
Time: 18:17:48
(UTC+00:00)

Aureole 1 Rocket - Pass Details

Date: 13 August 2020
Orbit: 378 x 1379 km, 73.9° (Epoch: 18 September)

Event Time Altitude Azimuth Distance (km) Brightness Sun altitude
Rises 13:58:09 0° 182° (S) 3,211 6.5 -13.4°
Reaches altitude 10° 14:00:18 10° 178° (S) 2,422 5.9 -13.9°
Maximum altitude 14:05:51 59° 99° (E) 1,141 4.0 -15.1°
Drops below altitude 10° 14:13:02 10° 23° (NNE) 3,110 6.6 -16.7°
Sets 14:16:05 0° 19° (NNE) 4,195 7.3 -17.4°
